Temp
10 8 8 10 10 11 11 11 10 11 12 11 10 9 10 13 13 13 15 15 16 15 15 14 14 14 15 15 15 15 15 15 15 15 14 14 13 12 12 12 12 11 11 12
8 7 9 10 10 10 11 12 11 12 12 12 11 10 10 11 12 13 14 15 15 14 13 13 13 13 14 14 14 14 14 14 14 14 13 12 12 11 11 11 11 11 11 11
7 9 10 9 10 10 10 10 11 11 11 11 10 8 10 11 11 12 13 14 15 14 13 12 12 12 13 13 14 13 13 13 12 12 11 10 10 11 10 10 11 10 10 10
8 9 9 9 10 10 9 10 11 11 10 9 10 8 9 11 12 12 12 13 13 12 11 12 11 12 12 13 13 13 12 11 11 11 9 9 10 10 10 10 10 10 10 9
7 9 9 9 10 11 10 11 10 10 9 8 8 7 8 9 11 12 8 10 11 11 11 11 11 12 12 12 12 11 11 11 10 10 9 9 9 9 9 9 9 8 8 8
8 9 9 9 10 10 10 10 9 8 7 5 8 8 8 10 12 10 8 8 9 10 10 10 11 11 11 11 10 10 10 10 10 10 9 8 8 7 7 7 7 8 9 9
8 8 8 10 9 10 10 8 6 4 6 6 8 8 9 11 12 10 9 8 9 9 10 10 11 10 10 10 10 10 9 9 9 10 9 9 9 8 8 8 8 9 9 9
6 7 8 8 9 9 9 9 5 6 6 7 7 8 9 11 12 12 11 10 8 8 9 10 10 9 10 10 10 9 9 9 9 9 9 9 9 9 9 9 9 8 9 8
6 7 8 8 9 9 8 8 8 7 1 4 6 8 10 10 9 8 8 8 7 8 9 9 9 10 9 9 9 9 9 8 8 9 9 9 9 8 8 8 8 8 8 8
8 6 7 7 9 9 8 9 8 6 3 4 6 8 9 11 10 6 5 6 8 9 9 10 10 10 10 10 9 9 9 9 9 8 8 8 8 8 7 7 7 7 7 7
8 7 6 7 8 8 8 7 8 7 5 6 6 8 8 10 8 6 6 9 9 10 11 10 10 9 9 9 8 9 9 8 8 8 7 7 7 7 7 6 6 6 6 6
8 6 6 7 7 8 9 8 8 5 6 4 5 7 9 9 9 9 9 10 10 10 10 10 10 9 10 10 9 9 8 7 7 7 6 6 6 6 5 5 5 5 5 5
7 5 5 5 5 6 7 7 8 7 6 6 6 6 7 8 8 10 10 10 10 10 10 10 10 10 10 9 8 8 7 6 5 5 5 5 5 5 4 4 4 4 4 3
8 5 6 7 7 7 6 7 7 7 4 7 7 8 8 8 9 9 9 10 11 11 10 9 9 9 9 8 8 7 6 5 4 3 3 3 3 3 2 2 2 2 2 1
5 5 5 7 7 7 7 7 7 6 7 7 8 6 7 8 7 8 10 10 9 10 10 10 10 10 10 9 9 7 6 4 3 3 2 2 1 1 1 1 0 0 -0 -1
5 4 5 4 6 7 7 6 6 6 6 6 6 6 7 9 9 9 9 9 9 9 10 9 9 9 9 9 9 7 6 4 2 1 1 0 -0 -0 -1 -1 -1 -2 -2 -2
4 2 2 1 2 4 1 2 5 6 6 6 5 7 7 6 7 8 9 9 9 9 9 9 8 8 9 9 8 7 5 3 1 0 -0 -1 -1 -2 -2 -2 -3 -3 -3 -3
4 2 -1 -2 -1 0 5 4 6 6 7 6 6 6 7 7 9 8 8 8 8 8 8 8 8 8 8 8 8 7 3 1 -0 -1 -2 -2 -2 -3 -3 -4 -4 -5 -5 -6
4 2 -1 -1 -6 1 4 5 4 4 5 5 5 6 7 7 6 6 8 8 8 8 8 7 7 7 7 7 6 5 2 0 -1 -2 -3 -4 -4 -5 -5 -5 -5 -6 -7 -6
3 3 2 -6 -1 -0 3 5 7 6 5 6 6 5 6 5 4 3 8 7 7 7 7 6 6 6 6 6 5 3 1 -1 -2 -3 -4 -5 -6 -6 -6 -7 -7 -8 -8 -7
-3 -3 -0 -5 -2 -1 2 4 6 2 5 8 8 8 7 3 6 7 6 6 6 6 6 5 5 5 4 3 2 1 -1 -3 -4 -4 -5 -6 -7 -7 -8 -8 -8 -8 -7 -7
1 -0 -1 -0 -2 2 4 3 5 7 7 8 8 8 7 8 7 7 6 5 4 4 4 3 3 2 2 1 -1 -2 -3 -4 -5 -6 -7 -7 -7 -8 -8 -8 -8 -8 -8 -8
1 2 -0 2 2 4 4 7 9 9 8 8 8 8 8 6 6 6 6 5 3 3 2 1 1 0 -1 -2 -4 -4 -5 -5 -6 -7 -8 -8 -8 -8 -9 -8 -7 -8 -8 -9
-1 0 -1 -0 1 1 5 6 7 8 8 8 8 6 5 6 6 5 5 4 3 2 1 -0 -1 -1 -3 -4 -4 -5 -6 -7 -8 -8 -9 -8 -8 -8 -9 -8 -8 -9 -9 -9
-0 -1 -2 -3 -0 1 3 5 6 6 7 6 6 6 5 4 4 4 3 3 2 1 -0 -1 -3 -3 -4 -5 -6 -7 -7 -8 -8 -9 -9 -9 -9 -8 -9 -9 -9 -10 -10 -10
-1 -2 1 2 3 4 6 7 6 5 5 6 5 5 5 4 4 2 2 2 1 0 -2 -3 -4 -5 -6 -7 -7 -8 -9 -9 -9 -9 -9 -9 -9 -9 -9 -10 -9 -10 -10 -10
Height
1529 1534 1537 1530 1531 1534 1536 1541 1543 1537 1533 1535 1539 1538 1534 1528 1526 1526 1526 1527 1529 1532 1532 1532 1533 1535 1535 1535 1535 1535 1534 1533 1532 1532 1532 1533 1533 1532 1533 1534 1536 1536 1536 1537
1533 1535 1531 1530 1531 1533 1535 1537 1539 1534 1533 1534 1535 1534 1529 1524 1520 1518 1519 1522 1525 1527 1528 1530 1531 1532 1532 1532 1531 1531 1529 1528 1527 1527 1528 1528 1529 1529 1530 1531 1532 1533 1534 1533
1533 1527 1527 1530 1531 1533 1535 1536 1538 1540 1536 1535 1536 1534 1524 1514 1510 1511 1512 1516 1520 1522 1524 1527 1528 1529 1529 1529 1527 1527 1526 1526 1526 1525 1525 1526 1527 1527 1529 1529 1530 1530 1530 1530
1530 1524 1526 1529 1530 1530 1537 1532 1533 1536 1542 1549 1538 1547 1526 1513 1509 1507 1508 1512 1514 1517 1522 1524 1525 1527 1527 1526 1525 1524 1525 1525 1524 1524 1525 1526 1527 1527 1527 1527 1527 1527 1528 1528
1527 1523 1526 1528 1526 1526 1531 1528 1532 1534 1541 1545 1544 1553 1526 1516 1512 1508 1509 1509 1512 1516 1520 1522 1524 1524 1524 1525 1524 1524 1524 1525 1525 1524 1524 1525 1526 1526 1525 1526 1525 1525 1525 1524
1522 1521 1523 1522 1523 1525 1528 1531 1536 1539 1546 1564 1542 1544 1531 1516 1508 1508 1511 1512 1513 1516 1520 1523 1523 1524 1523 1522 1523 1523 1523 1524 1524 1523 1523 1524 1524 1524 1524 1523 1523 1523 1522 1522
1522 1522 1521 1519 1524 1527 1529 1535 1556 1570 1556 1554 1536 1540 1522 1508 1503 1504 1507 1511 1513 1516 1519 1522 1523 1523 1521 1521 1522 1523 1523 1524 1524 1522 1521 1522 1522 1522 1522 1521 1521 1521 1520 1520
1524 1528 1520 1516 1516 1522 1527 1531 1549 1552 1551 1541 1536 1534 1517 1504 1503 1503 1506 1509 1513 1516 1519 1521 1522 1521 1521 1521 1521 1523 1523 1524 1523 1522 1521 1521 1521 1520 1520 1519 1519 1518 1518 1518
1518 1518 1515 1514 1512 1517 1526 1530 1529 1540 1566 1553 1537 1523 1508 1505 1505 1507 1509 1513 1516 1518 1519 1519 1520 1519 1520 1521 1521 1522 1522 1522 1521 1520 1520 1520 1519 1519 1518 1518 1517 1516 1515 1515
1501 1518 1514 1515 1514 1516 1518 1521 1533 1540 1564 1561 1535 1525 1517 1508 1507 1512 1515 1516 1518 1518 1518 1518 1517 1518 1520 1519 1520 1520 1520 1519 1518 1518 1517 1517 1516 1516 1516 1516 1515 1514 1513 1512
1497 1503 1517 1514 1511 1512 1519 1521 1522 1528 1540 1537 1540 1523 1511 1506 1506 1511 1515 1516 1516 1516 1517 1517 1516 1517 1518 1517 1518 1518 1517 1516 1515 1515 1515 1515 1515 1514 1513 1513 1513 1512 1511 1510
1497 1505 1510 1509 1510 1508 1508 1510 1515 1531 1534 1539 1533 1526 1507 1508 1507 1509 1513 1516 1518 1518 1517 1517 1516 1516 1516 1515 1514 1514 1513 1512 1512 1512 1512 1512 1511 1511 1511 1511 1510 1509 1508 1507
1494 1509 1513 1512 1516 1510 1511 1510 1510 1517 1524 1522 1530 1524 1510 1509 1511 1513 1515 1516 1516 1514 1513 1513 1512 1512 1512 1510 1510 1509 1509 1509 1508 1508 1508 1508 1508 1508 1508 1508 1507 1506 1505 1505
1490 1505 1501 1496 1495 1500 1509 1507 1509 1513 1527 1518 1514 1514 1510 1508 1510 1511 1511 1510 1509 1509 1509 1509 1508 1506 1505 1505 1505 1505 1504 1503 1503 1503 1504 1504 1504 1505 1505 1505 1505 1504 1503 1503
1494 1499 1499 1493 1494 1498 1501 1501 1502 1507 1508 1511 1507 1512 1509 1506 1504 1504 1502 1503 1505 1505 1506 1505 1503 1502 1502 1502 1500 1499 1498 1498 1498 1499 1499 1500 1501 1502 1502 1502 1501 1502 1501 1501
1492 1499 1499 1502 1496 1497 1499 1500 1502 1504 1507 1508 1508 1505 1502 1501 1502 1501 1501 1501 1501 1501 1501 1500 1499 1498 1497 1496 1495 1494 1493 1493 1493 1494 1496 1496 1497 1498 1499 1499 1499 1499 1499 1499
1491 1498 1509 1519 1509 1508 1519 1506 1502 1500 1499 1499 1505 1497 1495 1497 1497 1497 1497 1498 1498 1497 1496 1495 1493 1492 1491 1490 1489 1487 1487 1488 1489 1490 1491 1492 1494 1495 1495 1495 1497 1497 1496 1497
1484 1493 1507 1526 1521 1527 1491 1488 1487 1490 1490 1491 1490 1490 1489 1491 1490 1493 1494 1493 1492 1492 1491 1489 1488 1487 1486 1484 1482 1481 1482 1483 1485 1486 1488 1489 1490 1491 1492 1492 1493 1495 1494 1495
1476 1489 1511 1519 1546 1505 1489 1486 1488 1490 1487 1483 1486 1483 1484 1485 1487 1486 1487 1487 1487 1486 1485 1484 1483 1481 1479 1478 1478 1477 1477 1478 1480 1482 1484 1485 1487 1489 1489 1490 1491 1492 1493 1493
1479 1482 1493 1530 1524 1519 1485 1474 1476 1481 1482 1475 1474 1475 1477 1481 1485 1481 1482 1482 1482 1481 1480 1478 1477 1475 1473 1472 1471 1472 1472 1474 1476 1479 1478 1481 1484 1486 1488 1489 1490 1491 1492 1492
1496 1498 1497 1522 1516 1500 1476 1471 1475 1497 1473 1462 1468 1469 1472 1475 1474 1472 1474 1476 1476 1476 1474 1472 1471 1469 1468 1467 1466 1468 1466 1472 1473 1474 1476 1478 1482 1483 1485 1488 1489 1490 1491 1491
1476 1490 1497 1500 1512 1487 1463 1472 1472 1456 1457 1462 1465 1465 1465 1464 1465 1465 1466 1467 1468 1467 1466 1465 1463 1463 1461 1462 1461 1466 1464 1468 1470 1471 1473 1475 1477 1480 1482 1483 1488 1488 1489 1489
1472 1463 1478 1475 1467 1454 1455 1452 1452 1453 1454 1457 1459 1460 1459 1459 1459 1460 1459 1458 1458 1458 1458 1458 1458 1457 1456 1457 1458 1460 1462 1464 1466 1467 1470 1471 1474 1478 1480 1482 1483 1487 1487 1487
1459 1456 1463 1465 1448 1447 1447 1449 1449 1450 1450 1450 1451 1452 1454 1453 1452 1450 1449 1449 1448 1448 1449 1451 1450 1449 1451 1452 1453 1455 1457 1459 1462 1465 1468 1470 1473 1474 1478 1479 1482 1484 1484 1485
1446 1450 1452 1456 1439 1442 1441 1441 1441 1442 1444 1444 1445 1445 1443 1443 1442 1442 1441 1440 1440 1440 1440 1441 1442 1443 1444 1446 1448 1450 1452 1455 1458 1462 1465 1468 1471 1472 1475 1477 1479 1481 1482 1483
1435 1433 1437 1432 1422 1429 1430 1430 1432 1433 1434 1435 1435 1435 1433 1432 1432 1433 1432 1432 1431 1430 1431 1432 1434 1436 1438 1440 1443 1445 1448 1452 1456 1459 1462 1466 1469 1470 1473 1475 1476 1478 1479 1479
Wind_Speed
4 4 8 10 6 4 5 3 4 3 3 5 6 7 10 24 24 21 20 18 16 14 14 14 14 14 15 16 17 18 19 22 22 21 20 19 18 18 18 18 16 15 18 18
3 6 7 4 5 3 0 1 3 1 1 2 4 10 11 16 18 27 31 30 23 16 17 16 15 15 14 13 13 14 13 13 13 12 13 13 14 14 11 12 15 17 17 16
6 4 13 6 5 6 4 5 2 1 2 2 4 8 5 7 21 24 23 25 24 25 22 18 15 12 8 8 8 9 10 10 10 8 7 8 10 10 11 12 13 14 13 13
4 7 7 5 6 6 6 6 5 3 3 3 3 5 5 5 6 3 13 16 14 20 21 17 13 8 6 5 7 7 7 7 6 5 6 11 12 13 12 12 12 13 14 15
7 4 5 4 5 4 4 4 6 4 2 3 1 1 7 3 6 3 7 17 19 20 19 16 9 6 3 5 4 3 4 4 4 3 5 12 12 12 13 13 12 12 13 12
5 2 5 8 3 5 4 5 5 4 3 3 8 7 5 3 4 3 8 17 21 19 15 11 8 4 3 1 1 1 2 3 3 3 3 6 10 11 12 13 13 11 9 8
3 2 1 3 6 1 3 5 2 3 1 6 1 4 6 6 3 7 15 22 20 17 14 11 6 3 1 1 1 2 2 3 3 3 3 4 7 9 10 10 9 8 7 6
7 5 8 6 6 6 7 5 5 7 5 3 2 6 5 5 7 5 19 24 20 17 13 10 4 3 2 3 1 2 3 3 4 4 4 5 7 8 9 9 9 7 7 6
6 5 0 1 4 9 5 5 5 4 3 2 4 5 8 2 5 9 16 19 16 13 12 7 4 3 5 3 2 3 4 5 5 6 7 8 9 10 9 9 8 8 6 5
6 3 2 2 3 2 5 7 2 2 2 4 3 3 4 2 4 3 8 16 14 12 10 8 6 5 5 5 6 6 7 8 9 10 11 12 12 11 11 10 9 9 7 5
3 4 2 5 7 9 4 3 3 4 4 3 1 4 5 2 3 8 13 15 14 11 9 9 6 8 10 9 9 9 9 11 13 14 14 14 14 13 13 12 11 9 8 8
2 3 3 5 2 4 3 5 6 4 4 3 3 4 1 0 4 14 15 13 11 9 7 9 10 10 13 13 13 13 14 14 15 16 16 17 17 16 14 13 12 11 10 9
5 4 2 2 3 3 4 4 4 4 2 5 4 4 1 10 11 10 9 3 4 10 12 13 15 16 18 18 17 18 18 18 18 18 18 19 18 17 16 15 13 11 10 9
17 4 5 5 2 5 5 6 7 6 4 3 7 3 5 4 3 5 7 19 21 20 19 19 20 22 21 22 21 22 23 21 19 19 20 19 19 18 16 14 13 11 10 8
6 5 6 3 5 4 4 11 15 15 13 10 4 7 7 9 6 13 26 24 20 24 27 29 32 32 29 25 28 27 27 25 22 21 20 20 19 17 16 15 13 10 8 7
8 2 3 1 3 1 3 6 7 6 4 7 8 13 8 21 22 24 26 27 26 25 27 28 27 25 29 29 30 31 31 28 25 22 21 20 19 18 16 14 12 11 9 8
8 6 3 3 1 2 6 7 7 5 6 8 8 10 4 7 11 20 25 24 23 25 24 25 23 21 23 24 28 31 31 29 26 23 21 20 19 18 16 15 13 11 9 7
7 5 3 3 2 2 5 2 8 15 12 11 8 6 14 14 24 22 22 21 24 24 22 20 18 21 24 24 22 25 26 27 25 22 20 19 19 18 17 15 14 11 9 9
5 5 3 4 4 5 4 4 7 8 11 12 11 13 17 19 11 17 13 13 16 20 21 20 21 20 22 19 19 21 24 25 23 21 19 19 18 17 16 15 14 12 10 9
4 4 4 2 5 8 5 8 13 6 11 14 19 14 16 6 4 4 12 15 19 23 23 20 25 21 22 20 18 19 21 22 21 20 19 18 17 16 15 14 12 10 9 9
2 3 7 4 3 8 8 7 14 5 7 21 24 20 15 6 13 14 15 17 20 21 23 27 24 22 21 20 18 19 19 21 20 18 17 16 16 16 14 12 10 10 9 7
8 6 4 3 2 13 14 3 12 18 5 9 13 15 16 18 19 19 24 24 22 23 24 24 24 22 20 19 18 19 19 19 18 17 17 17 16 15 13 10 12 10 8 6
3 7 6 10 8 4 18 24 31 28 24 23 22 22 21 19 22 30 29 25 23 23 23 23 23 22 21 19 18 18 17 17 17 17 18 17 16 15 12 13 11 9 8 6
4 4 3 4 8 13 13 29 26 24 28 30 33 25 26 31 37 32 27 26 26 24 24 24 24 23 23 21 20 18 18 18 17 18 18 17 16 14 15 13 11 9 7 6
5 11 6 5 12 4 17 26 31 29 31 34 35 34 35 33 31 25 27 28 27 26 24 24 24 24 23 22 20 18 17 18 19 19 20 19 17 16 14 12 10 8 7 6
12 8 8 9 14 8 22 35 35 33 33 32 33 35 37 36 28 28 32 30 28 27 24 25 24 24 23 21 20 18 19 20 21 22 20 18 17 16 14 11 10 8 7 6
Wind_Direction
165 114 204 198 155 118 131 180 231 236 231 152 220 259 264 270 279 275 264 249 235 229 234 229 224 216 224 234 247 260 271 279 274 268 264 256 249 245 244 246 244 248 255 263
69 220 221 211 209 203 208 190 265 40 346 147 270 262 252 250 253 248 248 244 241 237 212 210 215 219 226 246 273 288 287 285 283 276 259 241 231 232 236 241 242 246 257 260
171 238 204 191 194 193 194 177 199 68 348 290 341 288 270 273 245 245 240 244 242 232 205 199 203 213 234 266 275 282 289 290 289 282 235 202 214 220 227 239 250 253 254 265
229 245 178 176 201 151 178 196 158 121 56 241 41 288 298 272 297 217 221 215 203 193 190 191 197 216 241 264 285 292 296 302 299 280 222 209 223 232 239 243 255 266 273 274
228 209 183 173 185 150 194 171 173 142 141 13 213 233 273 281 286 223 135 156 165 169 178 184 197 208 244 279 287 296 303 307 300 259 218 216 230 236 238 245 252 260 268 267
202 226 181 186 123 152 153 90 54 65 83 300 205 175 274 225 213 118 144 160 160 166 175 182 179 209 229 252 279 282 303 303 287 264 239 221 221 219 227 238 247 250 252 254
156 254 239 166 108 109 128 115 53 2 212 232 120 171 262 277 245 180 170 173 173 172 176 181 191 193 141 156 239 273 280 282 282 274 253 236 227 225 226 228 229 229 233 245
162 197 189 192 173 169 176 178 158 194 191 236 79 219 247 263 267 252 183 176 173 174 183 186 203 179 184 186 224 267 280 282 289 286 267 240 228 220 218 220 221 226 235 248
149 229 305 150 138 148 184 192 170 99 20 60 221 287 308 120 52 121 155 169 172 181 189 204 240 212 212 214 238 257 266 266 258 255 254 246 239 234 231 230 232 238 246 260
186 115 219 149 111 93 166 150 109 60 156 242 271 270 237 307 220 117 136 165 182 192 208 237 235 223 223 226 239 254 267 274 271 257 247 245 243 242 243 245 247 248 252 263
159 108 169 150 214 171 148 177 179 141 160 178 191 255 214 252 193 163 186 191 198 212 226 227 234 224 228 235 246 256 265 262 258 259 257 255 249 246 244 244 247 252 259 269
154 81 179 191 337 248 169 174 165 143 225 239 142 267 98 339 159 171 189 201 212 227 246 252 252 261 258 261 259 262 264 266 263 260 257 255 251 247 245 246 247 251 259 267
153 126 174 121 297 359 198 206 169 130 95 206 153 251 76 113 104 110 129 130 268 265 265 266 256 264 260 261 264 267 266 264 260 258 256 253 251 249 247 246 248 251 256 260
146 171 207 197 151 130 198 189 200 190 207 162 221 220 269 273 141 185 301 311 308 305 300 287 275 275 274 269 272 271 269 266 262 258 255 252 249 247 246 247 248 248 254 257
118 199 189 141 133 135 201 214 213 216 226 230 192 220 232 275 277 282 302 300 307 307 306 300 296 293 288 279 274 269 265 262 260 258 256 252 249 247 245 243 243 242 242 254
163 183 167 334 358 211 223 220 207 217 203 249 242 258 231 258 271 274 286 293 298 301 301 302 301 295 292 289 280 271 264 259 258 256 254 250 247 245 243 240 237 237 233 229
177 136 125 230 292 72 316 213 201 203 206 201 223 229 250 250 254 270 283 290 291 294 297 301 304 303 302 295 287 275 264 257 253 252 252 249 247 244 240 239 237 231 224 214
150 113 93 161 37 283 236 334 216 214 226 220 245 261 243 246 269 283 284 282 290 297 302 304 308 315 309 302 284 274 256 250 249 250 250 248 244 239 234 228 222 209 216 224
133 124 110 141 196 305 279 218 169 169 245 230 229 248 250 263 272 277 288 292 305 305 302 300 310 314 324 302 282 269 253 245 245 246 246 242 237 231 222 213 225 223 210 219
74 77 130 122 158 215 233 204 185 102 256 227 212 232 247 232 251 243 286 298 301 301 296 296 304 299 308 298 276 259 246 241 241 241 238 234 226 220 223 225 214 210 211 209
96 39 184 174 208 279 241 233 151 146 240 210 228 239 242 186 243 282 290 299 299 291 286 293 289 285 285 273 257 246 237 237 239 239 234 227 225 222 211 205 200 206 205 209
162 150 179 116 112 262 190 144 178 224 118 199 227 239 260 275 280 285 298 299 292 286 285 284 282 278 272 254 243 237 236 239 236 231 228 217 210 201 190 185 203 198 204 212
206 183 179 184 209 217 187 209 216 234 257 264 268 266 265 266 276 290 288 287 287 283 279 276 271 266 257 246 240 239 240 238 233 224 211 200 190 185 183 195 196 203 205 216
259 154 192 91 243 221 211 215 228 235 244 248 252 267 280 276 281 277 274 284 283 279 274 270 263 256 249 243 240 237 233 231 217 206 196 188 184 182 192 190 194 200 210 222
194 151 182 254 271 195 232 229 238 239 245 261 274 280 278 275 274 264 280 283 281 277 271 263 255 248 244 241 238 233 225 210 200 193 188 185 185 187 189 189 195 206 216 226
187 194 189 220 224 206 254 263 265 261 265 270 271 276 276 269 260 279 283 280 277 273 263 253 248 244 239 233 228 216 201 197 193 188 187 186 190 187 190 196 203 214 230 248